SJV625 WAOO-WIII

Flight info

Callsign SJV625
Flight time 1h 26m
Altitude 36000
Route DUNIA W18 AKSOX
Aircraft A320/M-SDE3FGHIRWY/LB1

Departure

Time 2026-04-27 14:52
Airport Syamsudin Noor International Airport (WAOO)

Arrival

Time 2026-04-27 16:19
Airport Soekarno-Hatta International Airport (WIII)
Time Latitude Longitude Altitude Speed Heading
2026-04-27 14:37 -3.43848 114.76055 70 ft 0 kts 10°
2026-04-27 14:42 -3.43854 114.76054 71 ft 2 kts 10°
2026-04-27 14:42 -3.43868 114.76052 71 ft 2 kts 10°
2026-04-27 14:42 -3.43883 114.76049 71 ft 2 kts 10°
2026-04-27 14:43 -3.43897 114.76047 71 ft 2 kts 10°
2026-04-27 14:43 -3.43910 114.76045 71 ft 2 kts 353°
2026-04-27 14:43 -3.43924 114.76051 71 ft 2 kts 317°
2026-04-27 14:43 -3.43931 114.76062 71 ft 0 kts 285°
2026-04-27 14:44 -3.43933 114.76069 71 ft 1 kts 280°
2026-04-27 14:44 -3.43933 114.76071 71 ft 0 kts 280°
2026-04-27 14:47 -3.43933 114.76070 70 ft 0 kts 280°
2026-04-27 14:47 -3.43930 114.76059 70 ft 4 kts 282°
2026-04-27 14:48 -3.43923 114.76006 70 ft 11 kts 261°
2026-04-27 14:48 -3.44110 114.75948 71 ft 16 kts 190°
2026-04-27 14:48 -3.44187 114.76009 71 ft 16 kts 97°
2026-04-27 14:49 -3.44206 114.76124 71 ft 17 kts 100°
2026-04-27 14:49 -3.44230 114.76250 71 ft 19 kts 99°
2026-04-27 14:49 -3.44256 114.76389 71 ft 21 kts 100°
2026-04-27 14:49 -3.44283 114.76543 71 ft 22 kts 100°
2026-04-27 14:50 -3.44312 114.76699 71 ft 23 kts 101°
2026-04-27 14:50 -3.44342 114.76861 71 ft 24 kts 100°
2026-04-27 14:50 -3.44373 114.77025 71 ft 23 kts 101°
2026-04-27 14:50 -3.44403 114.77187 71 ft 23 kts 100°
2026-04-27 14:51 -3.44409 114.77330 71 ft 15 kts 85°
2026-04-27 14:51 -3.44428 114.77307 71 ft 11 kts 294°
2026-04-27 14:51 -3.44422 114.77286 71 ft 0 kts 280°
2026-04-27 14:51 -3.44418 114.77267 71 ft 19 kts 280°
2026-04-27 14:52 -3.44294 114.76588 71 ft 122 kts 278°
2026-04-27 14:52 -3.44104 114.75555 206 ft 167 kts 282°
2026-04-27 14:52 -3.43899 114.74442 906 ft 165 kts 281°
2026-04-27 14:52 -3.43723 114.73283 1553 ft 173 kts 274°
2026-04-27 14:53 -3.43716 114.72082 2190 ft 179 kts 270°
2026-04-27 14:53 -3.43737 114.70779 2654 ft 195 kts 270°
2026-04-27 14:53 -3.43755 114.69360 3124 ft 212 kts 270°
2026-04-27 14:53 -3.43768 114.67831 3522 ft 235 kts 270°
2026-04-27 14:54 -3.43780 114.66135 4026 ft 255 kts 270°
2026-04-27 14:54 -3.43990 114.64294 4588 ft 273 kts 254°
2026-04-27 14:54 -3.44616 114.62484 5394 ft 281 kts 248°
2026-04-27 14:54 -3.45335 114.60666 6320 ft 284 kts 248°
2026-04-27 14:55 -3.46046 114.58841 7220 ft 288 kts 249°
2026-04-27 14:55 -3.46753 114.56963 8118 ft 291 kts 249°
2026-04-27 14:55 -3.47453 114.55051 9006 ft 295 kts 249°
2026-04-27 14:55 -3.48140 114.53140 9870 ft 298 kts 250°
2026-04-27 14:56 -3.48836 114.51183 10649 ft 305 kts 250°
2026-04-27 14:56 -3.49560 114.49133 11229 ft 318 kts 250°
2026-04-27 14:56 -3.50305 114.47018 12018 ft 323 kts 250°
2026-04-27 14:56 -3.51047 114.44904 12842 ft 326 kts 250°
2026-04-27 14:57 -3.51799 114.42759 13627 ft 330 kts 250°
2026-04-27 14:57 -3.52556 114.40599 14384 ft 335 kts 250°
2026-04-27 14:57 -3.53328 114.38394 15132 ft 339 kts 250°
2026-04-27 14:57 -3.54106 114.36171 15859 ft 343 kts 250°
2026-04-27 14:58 -3.54903 114.33894 16591 ft 346 kts 250°
2026-04-27 14:58 -3.55694 114.31617 17300 ft 350 kts 250°
2026-04-27 14:58 -3.56494 114.29318 17974 ft 354 kts 250°
2026-04-27 14:58 -3.57312 114.26971 18634 ft 358 kts 250°
2026-04-27 14:59 -3.58131 114.24622 19270 ft 362 kts 250°
2026-04-27 14:59 -3.58964 114.22238 19899 ft 365 kts 250°
2026-04-27 14:59 -3.59803 114.19839 20517 ft 369 kts 250°
2026-04-27 14:59 -3.60658 114.17392 21133 ft 373 kts 250°
2026-04-27 15:00 -3.61514 114.14944 21735 ft 377 kts 250°
2026-04-27 15:00 -3.62388 114.12445 22329 ft 381 kts 250°
2026-04-27 15:00 -3.63252 114.09971 22903 ft 384 kts 250°
2026-04-27 15:00 -3.64144 114.07420 23477 ft 388 kts 250°
2026-04-27 15:01 -3.65031 114.04881 24030 ft 391 kts 250°
2026-04-27 15:01 -3.65935 114.02296 24573 ft 395 kts 250°
2026-04-27 15:01 -3.66850 113.99676 25104 ft 399 kts 250°
2026-04-27 15:01 -3.67760 113.97073 25614 ft 402 kts 250°
2026-04-27 15:02 -3.68689 113.94413 26118 ft 405 kts 250°
2026-04-27 15:02 -3.69620 113.91748 26606 ft 409 kts 250°
2026-04-27 15:02 -3.70557 113.89066 27080 ft 412 kts 250°
2026-04-27 15:02 -3.71510 113.86337 27545 ft 415 kts 250°
2026-04-27 15:03 -3.72463 113.83609 27990 ft 418 kts 250°
2026-04-27 15:03 -3.73419 113.80869 28411 ft 421 kts 250°
2026-04-27 15:03 -3.74393 113.78080 28822 ft 424 kts 250°
2026-04-27 15:03 -3.75364 113.75298 29213 ft 427 kts 250°
2026-04-27 15:04 -3.76348 113.72479 29592 ft 429 kts 250°
2026-04-27 15:04 -3.77329 113.69669 29953 ft 432 kts 250°
2026-04-27 15:04 -3.78326 113.66811 30304 ft 434 kts 250°
2026-04-27 15:04 -3.79318 113.63970 30638 ft 437 kts 250°
2026-04-27 15:05 -3.80324 113.61083 30972 ft 439 kts 250°
2026-04-27 15:05 -3.81322 113.58223 31382 ft 438 kts 250°
2026-04-27 15:05 -3.82327 113.55342 31821 ft 437 kts 250°
2026-04-27 15:05 -3.83334 113.52454 32240 ft 436 kts 250°
2026-04-27 15:06 -3.84318 113.49631 32627 ft 436 kts 250°
2026-04-27 15:06 -3.85315 113.46773 33007 ft 435 kts 250°
2026-04-27 15:06 -3.86308 113.43922 33378 ft 435 kts 250°
2026-04-27 15:06 -3.87313 113.41040 33743 ft 434 kts 250°
2026-04-27 15:07 -3.88303 113.38198 34093 ft 434 kts 250°
2026-04-27 15:07 -3.89301 113.35333 34407 ft 434 kts 250°
2026-04-27 15:07 -3.90291 113.32485 34676 ft 435 kts 251°
2026-04-27 15:07 -3.91283 113.29621 34931 ft 436 kts 251°
2026-04-27 15:08 -3.92275 113.26765 35183 ft 437 kts 251°
2026-04-27 15:08 -3.93281 113.23875 35433 ft 438 kts 251°
2026-04-27 15:08 -3.94275 113.21020 35670 ft 439 kts 251°
2026-04-27 15:08 -3.95286 113.18117 35836 ft 440 kts 251°
2026-04-27 15:09 -3.97292 113.12341 35852 ft 441 kts 251°
2026-04-27 15:09 -3.99276 113.06522 35856 ft 441 kts 251°
2026-04-27 15:10 -4.01241 113.00751 35857 ft 441 kts 251°
2026-04-27 15:10 -4.03231 112.94918 35857 ft 440 kts 251°
2026-04-27 15:11 -4.05198 112.89152 35857 ft 439 kts 251°
2026-04-27 15:11 -4.07170 112.83375 35857 ft 438 kts 250°
2026-04-27 15:12 -4.09138 112.77609 35857 ft 438 kts 250°
2026-04-27 15:12 -4.11113 112.71855 35857 ft 437 kts 250°
2026-04-27 15:13 -4.13106 112.66093 35857 ft 437 kts 250°
2026-04-27 15:13 -4.15079 112.60339 35857 ft 437 kts 250°
2026-04-27 15:14 -4.17044 112.54588 35857 ft 437 kts 250°
2026-04-27 15:14 -4.18998 112.48858 35857 ft 437 kts 250°
2026-04-27 15:15 -4.20969 112.43072 35857 ft 437 kts 250°
2026-04-27 15:15 -4.22916 112.37359 35857 ft 437 kts 250°
2026-04-27 15:16 -4.24888 112.31555 35857 ft 437 kts 251°
2026-04-27 15:16 -4.26827 112.25831 35857 ft 437 kts 251°
2026-04-27 15:17 -4.28794 112.20042 35857 ft 437 kts 250°
2026-04-27 15:17 -4.30744 112.14305 35857 ft 437 kts 250°
2026-04-27 15:18 -4.32698 112.08560 35857 ft 437 kts 250°
2026-04-27 15:18 -4.34661 112.02788 35858 ft 437 kts 250°
2026-04-27 15:19 -4.36618 111.97032 35861 ft 437 kts 250°
2026-04-27 15:19 -4.38571 111.91286 35867 ft 437 kts 250°
2026-04-27 15:20 -4.40525 111.85535 35873 ft 437 kts 250°
2026-04-27 15:20 -4.42487 111.79761 35879 ft 437 kts 250°
2026-04-27 15:21 -4.44447 111.73989 35882 ft 437 kts 250°
2026-04-27 15:21 -4.46411 111.68203 35883 ft 437 kts 250°
2026-04-27 15:22 -4.47387 111.65327 35883 ft 437 kts 250°
2026-04-27 15:24 -4.56327 111.38962 35884 ft 437 kts 250°
2026-04-27 15:24 -4.58289 111.33165 35882 ft 437 kts 251°
2026-04-27 15:25 -4.60236 111.27390 35883 ft 437 kts 251°
2026-04-27 15:25 -4.62185 111.21605 35883 ft 437 kts 251°
2026-04-27 15:26 -4.64065 111.15778 35884 ft 437 kts 251°
2026-04-27 15:26 -4.65926 111.09978 35883 ft 437 kts 251°
2026-04-27 15:27 -4.67786 111.04192 35883 ft 437 kts 251°
2026-04-27 15:27 -4.69672 110.98330 35883 ft 438 kts 251°
2026-04-27 15:28 -4.71552 110.92490 35883 ft 438 kts 251°
2026-04-27 15:28 -4.73431 110.86651 35884 ft 439 kts 251°
2026-04-27 15:29 -4.75304 110.80836 35884 ft 439 kts 251°
2026-04-27 15:29 -4.77186 110.74989 35884 ft 439 kts 251°
2026-04-27 15:30 -4.79056 110.69171 35884 ft 439 kts 251°
2026-04-27 15:30 -4.80929 110.63343 35884 ft 439 kts 251°
2026-04-27 15:31 -4.82812 110.57483 35884 ft 440 kts 251°
2026-04-27 15:31 -4.84699 110.51610 35884 ft 440 kts 251°
2026-04-27 15:32 -4.86573 110.45773 35884 ft 440 kts 251°
2026-04-27 15:32 -4.88438 110.39904 35884 ft 440 kts 251°
2026-04-27 15:33 -4.90231 110.34046 35882 ft 440 kts 252°
2026-04-27 15:33 -4.92026 110.28142 35883 ft 440 kts 252°
2026-04-27 15:34 -4.93813 110.22285 35884 ft 440 kts 252°
2026-04-27 15:34 -4.95622 110.16370 35884 ft 440 kts 252°
2026-04-27 15:35 -4.97420 110.10498 35884 ft 440 kts 252°
2026-04-27 15:35 -4.99209 110.04654 35884 ft 439 kts 252°
2026-04-27 15:36 -5.01009 109.98773 35884 ft 438 kts 252°
2026-04-27 15:36 -5.02802 109.92910 35884 ft 438 kts 252°
2026-04-27 15:37 -5.04588 109.87070 35884 ft 437 kts 252°
2026-04-27 15:37 -5.06365 109.81258 35884 ft 436 kts 252°
2026-04-27 15:38 -5.08138 109.75455 35884 ft 435 kts 252°
2026-04-27 15:38 -5.09915 109.69636 35884 ft 434 kts 252°
2026-04-27 15:39 -5.11702 109.63858 35884 ft 433 kts 252°
2026-04-27 15:39 -5.13489 109.58067 35884 ft 433 kts 252°
2026-04-27 15:40 -5.15264 109.52271 35884 ft 433 kts 252°
2026-04-27 15:40 -5.17031 109.46478 35884 ft 433 kts 252°
2026-04-27 15:41 -5.18788 109.40716 35884 ft 433 kts 252°
2026-04-27 15:41 -5.20555 109.34914 35884 ft 433 kts 252°
2026-04-27 15:42 -5.22304 109.29144 35883 ft 433 kts 253°
2026-04-27 15:42 -5.24067 109.23337 35883 ft 433 kts 252°
2026-04-27 15:43 -5.25821 109.17564 35884 ft 433 kts 252°
2026-04-27 15:43 -5.27579 109.11784 35883 ft 433 kts 253°
2026-04-27 15:44 -5.29348 109.05963 35884 ft 434 kts 253°
2026-04-27 15:44 -5.31203 109.00182 35883 ft 434 kts 251°
2026-04-27 15:45 -5.33120 108.94442 35884 ft 434 kts 251°
2026-04-27 15:45 -5.35036 108.88670 35885 ft 435 kts 252°
2026-04-27 15:46 -5.36942 108.82908 35890 ft 435 kts 252°
2026-04-27 15:46 -5.38843 108.77151 35896 ft 434 kts 252°
2026-04-27 15:47 -5.40742 108.71396 35902 ft 434 kts 252°
2026-04-27 15:47 -5.42650 108.65613 35907 ft 434 kts 252°
2026-04-27 15:48 -5.44549 108.59855 35909 ft 434 kts 252°
2026-04-27 15:49 -5.47406 108.51186 35910 ft 434 kts 252°
2026-04-27 15:49 -5.49308 108.45409 35910 ft 434 kts 252°
2026-04-27 15:50 -5.51202 108.39638 35909 ft 434 kts 253°
2026-04-27 15:50 -5.52883 108.33802 35909 ft 434 kts 255°
2026-04-27 15:51 -5.54490 108.27966 35892 ft 433 kts 255°
2026-04-27 15:51 -5.55297 108.25050 35464 ft 435 kts 255°
2026-04-27 15:51 -5.56123 108.22086 34506 ft 445 kts 255°
2026-04-27 15:51 -5.56958 108.19094 33670 ft 450 kts 255°
2026-04-27 15:52 -5.57805 108.16063 32942 ft 446 kts 255°
2026-04-27 15:52 -5.58634 108.13103 31843 ft 445 kts 254°
2026-04-27 15:52 -5.59480 108.10079 30351 ft 451 kts 254°
2026-04-27 15:52 -5.60320 108.07079 28912 ft 452 kts 254°
2026-04-27 15:53 -5.61168 108.04050 28249 ft 433 kts 254°
2026-04-27 15:53 -5.61967 108.01196 28003 ft 423 kts 254°
2026-04-27 15:53 -5.62769 107.98334 27507 ft 424 kts 254°
2026-04-27 15:53 -5.63565 107.95491 26881 ft 423 kts 254°
2026-04-27 15:54 -5.64357 107.92658 26244 ft 411 kts 254°
2026-04-27 15:54 -5.65126 107.89910 25616 ft 405 kts 254°
2026-04-27 15:54 -5.65884 107.87199 24987 ft 401 kts 254°
2026-04-27 15:54 -5.66632 107.84523 24362 ft 397 kts 254°
2026-04-27 15:55 -5.67377 107.81860 23733 ft 393 kts 254°
2026-04-27 15:55 -5.67863 107.80122 23320 ft 391 kts 254°
2026-04-27 15:55 -5.68856 107.76569 22476 ft 393 kts 254°
2026-04-27 15:55 -5.69591 107.73937 21852 ft 395 kts 254°
2026-04-27 15:56 -5.70333 107.71283 21225 ft 395 kts 254°
2026-04-27 15:56 -5.71071 107.68642 20594 ft 386 kts 254°
2026-04-27 15:56 -5.71784 107.66087 19965 ft 373 kts 254°
2026-04-27 15:56 -5.72475 107.63611 19341 ft 367 kts 254°
2026-04-27 15:57 -5.73170 107.61121 18710 ft 370 kts 254°
2026-04-27 15:57 -5.73863 107.58639 18086 ft 372 kts 254°
2026-04-27 15:57 -5.74565 107.56124 17452 ft 368 kts 254°
2026-04-27 15:57 -5.75244 107.53689 16823 ft 355 kts 254°
2026-04-27 15:58 -5.75902 107.51333 16199 ft 349 kts 254°
2026-04-27 15:58 -5.76564 107.48957 15566 ft 351 kts 254°
2026-04-27 15:58 -5.77211 107.46639 14942 ft 343 kts 254°
2026-04-27 15:58 -5.77851 107.44344 14314 ft 339 kts 254°
2026-04-27 15:59 -5.78483 107.42075 13687 ft 336 kts 254°
2026-04-27 15:59 -5.79117 107.39799 13055 ft 337 kts 254°
2026-04-27 15:59 -5.79753 107.37519 12421 ft 334 kts 254°
2026-04-27 15:59 -5.80362 107.35333 11803 ft 326 kts 254°
2026-04-27 16:00 -5.80969 107.33147 11174 ft 323 kts 254°
2026-04-27 16:00 -5.81372 107.31692 10753 ft 321 kts 254°
2026-04-27 16:00 -5.82157 107.28859 10139 ft 301 kts 254°
2026-04-27 16:00 -5.82715 107.26848 10040 ft 299 kts 254°
2026-04-27 16:01 -5.83272 107.24841 10034 ft 298 kts 254°
2026-04-27 16:01 -5.83831 107.22831 10031 ft 298 kts 254°
2026-04-27 16:01 -5.84393 107.20811 10030 ft 298 kts 254°
2026-04-27 16:01 -5.84958 107.18780 10030 ft 298 kts 254°
2026-04-27 16:02 -5.85515 107.16776 10030 ft 298 kts 254°
2026-04-27 16:02 -5.86081 107.14742 10029 ft 298 kts 254°
2026-04-27 16:02 -5.86634 107.12754 10029 ft 298 kts 254°
2026-04-27 16:02 -5.87199 107.10724 10029 ft 298 kts 254°
2026-04-27 16:03 -5.87763 107.08697 10029 ft 298 kts 254°
2026-04-27 16:03 -5.88321 107.06690 10029 ft 298 kts 254°
2026-04-27 16:03 -5.88881 107.04676 10029 ft 298 kts 254°
2026-04-27 16:03 -5.89443 107.02655 10029 ft 298 kts 254°
2026-04-27 16:04 -5.89999 107.00657 10029 ft 298 kts 254°
2026-04-27 16:04 -5.90560 106.98639 10029 ft 298 kts 254°
2026-04-27 16:04 -5.91116 106.96636 10028 ft 298 kts 254°
2026-04-27 16:04 -5.91676 106.94624 10026 ft 298 kts 254°
2026-04-27 16:05 -5.92234 106.92613 10024 ft 298 kts 254°
2026-04-27 16:05 -5.92796 106.90590 10022 ft 298 kts 254°
2026-04-27 16:05 -5.93352 106.88590 10017 ft 293 kts 254°
2026-04-27 16:05 -5.93884 106.86673 10010 ft 278 kts 255°
2026-04-27 16:06 -5.94397 106.84827 10005 ft 262 kts 255°
2026-04-27 16:06 -5.94872 106.83113 9996 ft 252 kts 255°
2026-04-27 16:06 -5.95343 106.81416 9883 ft 248 kts 255°
2026-04-27 16:06 -5.95805 106.79751 9534 ft 249 kts 254°
2026-04-27 16:07 -5.96354 106.78094 9140 ft 252 kts 249°
2026-04-27 16:07 -5.97010 106.76442 8765 ft 252 kts 248°
2026-04-27 16:07 -5.97669 106.74828 8563 ft 246 kts 248°
2026-04-27 16:07 -5.98318 106.73239 8270 ft 245 kts 248°
2026-04-27 16:08 -5.98962 106.71659 7960 ft 244 kts 248°
2026-04-27 16:08 -5.99606 106.70072 7653 ft 243 kts 248°
2026-04-27 16:08 -6.00244 106.68501 7348 ft 241 kts 248°
2026-04-27 16:08 -6.00879 106.66933 7044 ft 240 kts 248°
2026-04-27 16:09 -6.01509 106.65378 6742 ft 239 kts 248°
2026-04-27 16:09 -6.02757 106.62295 6143 ft 237 kts 248°
2026-04-27 16:09 -6.03380 106.60755 5845 ft 236 kts 248°
2026-04-27 16:10 -6.04615 106.57702 5253 ft 234 kts 248°
2026-04-27 16:10 -6.05832 106.54690 4670 ft 232 kts 248°
2026-04-27 16:11 -6.06438 106.53188 4379 ft 231 kts 248°
2026-04-27 16:11 -6.07646 106.50197 3801 ft 229 kts 248°
2026-04-27 16:12 -6.08834 106.47254 3233 ft 227 kts 248°
2026-04-27 16:12 -6.09434 106.45768 2946 ft 225 kts 248°
2026-04-27 16:12 -6.10716 106.42923 2361 ft 225 kts 228°
2026-04-27 16:13 -6.12064 106.42158 2039 ft 224 kts 185°
2026-04-27 16:13 -6.15144 106.42646 2013 ft 223 kts 168°
2026-04-27 16:13 -6.16624 106.43104 1989 ft 223 kts 146°
2026-04-27 16:14 -6.17634 106.45850 2013 ft 223 kts 86°
2026-04-27 16:14 -6.17381 106.48983 2006 ft 222 kts 78°
2026-04-27 16:15 -6.16490 106.51763 1998 ft 204 kts 68°
2026-04-27 16:15 -6.15485 106.54215 2077 ft 168 kts 68°
2026-04-27 16:16 -6.14666 106.56260 1699 ft 147 kts 68°
2026-04-27 16:16 -6.13922 106.58124 1335 ft 142 kts 68°
2026-04-27 16:17 -6.13183 106.59978 969 ft 141 kts 68°
2026-04-27 16:17 -6.12451 106.61814 606 ft 141 kts 68°
2026-04-27 16:18 -6.11712 106.63641 222 ft 140 kts 67°
2026-04-27 16:18 -6.11010 106.65416 48 ft 118 kts 69°
2026-04-27 16:19 -6.10766 106.66019 48 ft 69 kts 68°
2026-04-27 16:19 -6.10649 106.66318 48 ft 29 kts 71°
2026-04-27 16:20 -6.10642 106.66575 48 ft 7 kts 96°
2026-04-27 16:20 -6.10662 106.66629 48 ft 9 kts 126°
2026-04-27 16:20 -6.10790 106.66675 48 ft 11 kts 217°
2026-04-27 16:21 -6.10826 106.66599 48 ft 12 kts 249°
2026-04-27 16:21 -6.10942 106.66309 48 ft 17 kts 248°
2026-04-27 16:22 -6.10985 106.66198 48 ft 17 kts 248°
2026-04-27 16:22 -6.11074 106.65976 48 ft 16 kts 248°
2026-04-27 16:22 -6.11111 106.65886 48 ft 10 kts 249°
2026-04-27 16:23 -6.11138 106.65815 48 ft 11 kts 248°
2026-04-27 16:23 -6.11204 106.65651 48 ft 14 kts 248°
2026-04-27 16:23 -6.11283 106.65628 48 ft 14 kts 158°
2026-04-27 16:24 -6.11378 106.65661 48 ft 14 kts 176°
2026-04-27 16:24 -6.11554 106.65543 48 ft 16 kts 201°
2026-04-27 16:25 -6.11746 106.65510 48 ft 16 kts 248°
2026-04-27 16:25 -6.11819 106.65328 48 ft 13 kts 248°
2026-04-27 16:26 -6.11944 106.65348 48 ft 12 kts 127°
2026-04-27 16:26 -6.12014 106.65351 48 ft 6 kts 224°
2026-04-27 16:27 -6.12042 106.65324 48 ft 0 kts 224°